Theta_e
300 300 300 300 300 302 303 307 310 311 312 312 311 311 311 310 309 309 308 308 305 306 310 311 309 312 311 308 310 313 314 316 318 321 320 323 319 319 318 321 325 326 330 330 342
299 299 299 300 301 302 303 305 307 311 312 311 311 311 310 309 308 308 305 304 304 303 307 310 312 310 306 307 309 311 316 321 319 320 319 320 320 319 318 320 319 324 324 326 346
300 300 301 302 301 302 303 305 307 309 311 312 311 310 310 308 306 308 317 314 307 304 308 307 310 308 307 307 309 310 320 322 321 320 320 322 322 322 320 320 319 319 320 320 320
303 306 305 306 305 305 304 307 308 311 312 311 310 310 309 308 308 317 317 313 310 304 314 311 307 307 307 307 308 312 312 317 323 326 324 318 323 328 330 323 319 317 319 319 318
307 309 310 310 310 309 307 308 308 311 311 311 310 310 309 309 309 306 317 316 314 311 311 308 306 306 307 306 310 310 312 314 315 318 318 321 324 329 325 325 317 316 317 317 316
309 310 311 311 311 311 310 308 308 309 311 311 310 310 309 311 308 316 314 316 311 312 309 304 306 307 309 309 308 310 311 313 314 314 315 321 317 315 324 324 319 317 316 315 315
312 312 312 312 311 311 310 309 309 308 310 311 310 310 311 312 311 316 310 308 310 311 309 308 307 311 310 311 308 311 311 312 312 313 314 315 316 316 318 317 317 318 314 314 314
312 312 311 311 310 311 312 311 309 309 311 311 311 311 312 312 314 313 313 309 309 310 310 310 308 307 313 312 311 309 309 310 311 312 313 315 316 316 316 316 317 315 314 313 313
310 311 310 310 311 312 312 310 308 311 312 311 311 311 315 315 317 317 313 310 309 310 310 310 308 310 312 311 310 309 311 310 312 312 314 314 315 315 315 314 315 314 313 313 312
310 311 310 310 310 312 310 309 311 314 312 312 313 314 314 318 317 316 315 312 310 309 308 309 310 310 309 310 312 311 313 313 313 314 313 313 313 313 313 313 313 312 312 312 312
310 310 309 310 310 311 308 309 315 315 314 315 316 318 318 319 318 311 312 313 314 311 312 313 314 313 311 312 314 313 314 315 315 315 316 314 314 314 315 312 312 312 313 313 312
309 309 309 310 310 310 309 306 313 313 315 316 317 316 317 318 320 315 311 316 312 311 313 312 314 313 313 314 315 315 315 315 315 315 314 314 315 314 313 312 313 313 313 313 314
309 309 309 309 309 310 309 310 313 313 314 316 319 320 319 318 320 319 312 315 314 313 312 312 314 315 315 315 316 315 316 315 315 316 315 315 314 314 315 314 314 313 313 313 313
308 309 309 309 310 309 309 315 315 313 316 319 321 320 318 318 318 314 312 316 314 313 312 312 313 314 316 316 315 315 314 316 316 315 314 314 314 313 313 314 316 316 313 312 312
308 308 309 308 308 308 315 315 315 312 328 325 320 318 316 316 317 317 315 316 316 314 312 314 316 316 316 316 315 315 315 315 315 315 313 313 313 313 314 317 315 314 313 315 312
308 308 309 308 307 312 314 315 314 323 331 327 318 317 317 317 317 317 317 316 315 315 315 314 316 316 315 315 315 315 314 311 310 310 313 313 313 313 315 316 314 316 316 314 313
308 308 308 308 309 314 313 312 320 326 326 325 319 317 316 317 318 318 318 316 316 316 316 316 316 316 317 318 316 312 310 313 314 313 314 313 314 313 316 320 319 318 314 313 312
308 308 308 308 313 311 314 315 325 327 329 327 319 317 318 318 318 318 318 317 316 316 316 317 317 319 320 320 321 318 312 312 316 315 314 318 319 320 321 318 315 314 313 312 313
308 308 308 312 311 312 316 323 325 326 324 322 320 319 318 323 322 319 317 317 316 314 317 317 318 320 321 321 319 321 320 315 317 318 319 318 318 318 320 318 318 316 314 313 312
307 306 309 315 315 314 317 323 325 326 320 322 321 322 326 322 325 324 319 321 319 315 313 316 318 321 322 320 320 321 320 322 316 323 324 320 322 318 323 320 320 318 317 316 313
306 309 315 316 316 314 320 321 323 322 320 322 323 321 320 322 324 325 326 324 321 319 315 317 318 320 319 320 321 320 319 319 318 317 320 321 320 318 323 320 318 314 313 312 310
305 309 315 315 317 315 318 320 320 324 325 321 320 319 320 319 320 320 323 324 319 319 321 317 316 321 320 317 317 318 321 320 320 324 316 313 317 318 317 314 313 312 311 310 309
309 307 313 316 320 320 319 322 322 325 326 320 321 320 318 318 319 320 320 317 317 316 319 317 318 320 318 318 316 321 321 322 322 324 329 329 327 317 315 313 311 310 309 310 309
307 315 314 316 317 316 319 321 323 323 322 321 319 317 317 317 314 319 319 316 316 318 320 315 316 318 319 319 317 321 318 320 320 327 327 326 324 322 319 313 311 309 309 309 308
306 316 312 316 317 316 317 318 320 322 319 319 320 319 317 316 314 315 315 314 314 315 315 312 316 318 318 318 318 318 317 316 319 320 323 320 321 320 315 313 311 309 309 308 307
311 313 310 313 315 316 318 320 321 319 317 318 320 317 314 315 314 315 313 314 315 313 314 310 316 316 316 316 313 314 313 314 315 315 320 320 319 313 311 310 309 308 308 307 306
308 310 311 312 312 313 314 314 317 316 315 314 315 314 314 313 310 309 310 309 310 312 312 312 311 311 314 313 313 312 311 311 315 315 315 316 313 311 311 310 309 308 307 306 305
Wind_Speed
19 20 20 19 19 19 21 19 17 15 15 14 13 13 13 15 16 17 20 29 25 16 8 5 20 22 6 3 4 4 4 5 6 6 6 6 5 8 4 6 3 5 6 7 22
19 18 18 19 20 20 20 20 20 17 16 13 12 12 12 13 17 20 39 33 27 17 19 5 11 8 3 5 4 5 6 12 5 0 5 9 5 6 6 9 7 4 7 9 26
18 19 19 19 20 20 21 20 21 19 17 15 11 10 9 9 5 10 4 6 23 24 16 12 6 7 5 4 5 4 12 13 3 6 4 10 17 2 5 2 4 4 6 3 7
18 19 19 20 20 21 21 24 25 20 18 15 11 7 6 4 5 3 6 11 18 25 15 7 4 8 5 6 6 5 4 6 13 18 11 5 9 14 10 7 6 6 6 4 9
20 20 21 22 21 24 23 27 26 20 19 15 10 5 0 3 12 14 14 9 26 27 18 7 6 6 7 7 2 5 2 10 10 9 12 15 23 17 16 9 6 5 3 6 6
22 23 23 24 25 26 26 29 29 23 19 16 8 6 3 5 8 14 5 26 32 25 14 8 8 7 6 4 9 5 8 6 8 12 18 24 16 3 26 21 17 8 5 5 6
25 25 26 26 28 29 28 29 29 23 16 9 9 8 4 16 3 5 14 26 33 22 9 14 7 7 5 4 8 12 4 7 14 13 11 10 13 17 24 12 17 19 7 8 9
27 27 27 28 29 29 28 30 28 19 11 6 10 6 8 9 9 8 11 12 23 22 12 18 16 1 3 3 3 8 4 5 9 12 13 13 20 18 18 18 19 11 9 5 8
28 28 29 30 28 29 27 30 21 2 4 10 8 4 10 8 8 16 19 7 19 17 17 4 8 5 2 3 4 3 5 5 8 11 10 17 8 12 11 11 11 10 9 9 8
29 29 30 29 28 27 29 23 3 10 6 7 2 3 9 4 5 10 21 14 6 9 4 6 5 5 2 4 4 5 3 4 6 4 5 4 7 10 9 9 12 11 9 9 9
31 30 29 29 30 29 26 3 2 1 6 10 9 5 6 11 3 9 9 12 3 4 6 6 4 5 8 7 6 3 3 5 4 6 1 6 5 15 12 8 9 9 9 9 10
32 32 31 31 35 32 7 4 5 1 7 17 12 9 15 7 4 6 15 6 7 6 3 4 6 10 6 5 5 5 3 6 6 5 5 4 6 7 4 6 12 11 9 9 6
34 33 33 35 35 3 6 12 1 8 2 5 7 6 5 9 6 6 9 6 4 4 4 6 4 4 5 4 4 5 4 6 7 3 1 2 5 4 4 3 4 3 4 5 9
34 34 33 35 6 6 7 3 15 7 3 5 4 6 6 7 5 6 10 5 1 8 5 5 6 4 3 6 7 6 7 11 9 4 3 2 4 4 5 6 3 4 6 9 10
34 36 32 22 18 8 2 14 4 2 2 4 3 5 4 9 2 4 7 3 7 5 6 6 1 2 2 5 6 9 9 13 7 3 5 2 4 6 2 3 5 8 7 8 11
35 36 32 18 9 22 17 13 6 3 5 3 5 6 5 4 2 4 4 4 2 4 2 6 2 2 5 4 1 6 4 7 4 4 1 4 5 5 2 2 5 4 7 7 8
40 39 32 16 7 5 13 2 3 3 1 5 5 5 6 5 4 5 6 7 5 3 2 2 2 2 1 1 7 7 6 2 3 2 5 3 3 7 2 2 6 3 7 4 6
43 39 20 19 11 13 4 4 4 6 5 3 5 5 5 5 5 6 6 4 2 3 3 5 2 5 0 3 3 2 5 5 7 4 4 4 4 3 2 5 7 6 5 7 6
41 23 14 11 21 11 4 3 6 5 3 2 3 4 4 2 4 4 7 7 6 6 7 5 2 4 4 2 4 1 3 3 6 3 3 3 5 2 4 8 9 8 8 6 6
29 14 10 6 19 11 3 5 5 5 0 2 3 1 3 5 3 3 6 2 4 6 4 5 2 2 2 1 3 3 3 2 3 5 4 3 3 4 2 5 3 6 6 6 7
7 5 6 12 14 4 4 6 5 9 4 4 5 3 3 4 5 1 1 3 6 4 5 3 4 3 1 1 2 4 2 4 4 4 4 3 5 4 5 5 7 8 7 7 8
5 3 8 2 1 2 3 5 5 8 9 3 3 4 4 3 3 3 4 2 2 4 3 2 4 2 3 5 1 3 2 4 4 4 2 3 5 4 6 6 8 7 6 7 8
4 3 4 5 3 4 5 6 6 3 4 3 2 2 3 3 5 4 4 4 3 3 3 3 1 2 3 4 6 4 3 5 4 3 4 2 3 5 6 8 7 7 5 4 8
3 4 3 3 0 3 5 4 4 1 2 5 6 4 4 4 6 3 4 6 5 5 12 5 3 3 5 3 2 1 2 3 6 2 2 8 3 11 6 6 7 7 4 5 4
1 2 2 3 3 7 5 5 5 2 4 2 5 2 4 4 3 4 3 3 7 9 5 4 3 2 1 2 2 4 5 7 7 6 8 6 8 10 4 3 4 4 4 5 5
2 2 4 3 4 5 3 4 2 2 4 2 5 1 5 5 2 5 5 1 2 6 4 4 3 2 3 3 3 3 8 7 8 11 11 11 9 3 4 4 4 4 2 5 7
5 4 1 3 4 3 3 6 6 5 6 5 6 4 8 4 3 5 3 4 6 5 2 3 5 3 3 5 6 6 6 7 2 4 5 8 4 2 1 5 4 3 2 6 8
Wind_Direction
337 338 338 339 339 339 338 334 334 328 324 306 305 305 301 295 291 277 249 236 234 222 180 248 213 232 237 250 213 213 114 200 201 179 266 230 53 333 331 344 320 309 141 170 171
336 336 335 335 334 335 336 333 333 324 322 316 298 299 302 303 288 251 272 260 250 219 221 211 177 173 217 201 227 192 188 221 195 299 305 321 41 357 354 5 4 15 21 89 146
337 335 336 335 334 335 335 334 328 324 317 311 295 293 300 311 304 247 224 248 226 208 207 207 182 138 193 191 206 223 211 219 194 287 235 317 303 13 323 120 317 359 309 117 123
339 338 338 338 336 335 331 330 325 313 310 310 296 285 302 310 274 275 262 278 195 189 188 167 160 153 180 207 217 180 203 156 219 254 269 266 306 293 283 283 219 212 230 308 133
338 336 335 335 334 334 329 329 324 313 307 300 282 259 120 237 251 278 299 225 170 172 188 161 153 136 187 193 118 195 164 190 233 244 283 299 274 263 275 254 218 214 236 215 242
333 332 332 332 332 331 329 329 329 316 307 302 240 201 173 261 264 310 270 151 160 163 166 167 174 180 181 206 183 200 202 205 244 224 234 243 254 43 276 285 273 220 203 197 248
328 328 326 327 327 327 327 325 323 316 307 292 191 182 228 242 200 357 160 160 166 169 164 200 199 193 159 177 212 229 167 225 231 230 237 232 257 233 243 265 267 272 206 226 222
323 322 323 323 323 323 321 320 315 309 298 210 172 181 250 261 297 251 203 168 183 186 175 207 216 248 248 284 88 159 154 224 235 218 232 176 241 241 234 226 233 245 272 250 251
325 322 322 323 320 319 318 319 315 297 186 164 152 181 264 300 258 241 203 178 179 203 215 250 153 220 259 152 19 355 177 183 270 201 204 185 210 226 223 205 224 235 245 245 228
330 326 322 323 321 320 322 327 119 101 140 168 210 305 264 216 222 219 209 182 167 160 181 196 198 187 86 103 202 214 197 206 212 236 200 154 246 252 242 209 223 225 233 242 235
330 326 327 324 324 318 319 352 115 78 219 206 183 238 281 341 188 205 173 174 262 161 173 185 152 198 206 181 191 237 225 233 238 240 261 249 268 266 266 212 214 223 233 239 231
332 331 331 326 323 319 269 210 228 130 287 227 243 247 269 312 294 272 164 157 146 203 133 40 211 216 201 176 203 223 248 276 283 266 160 242 239 260 277 228 209 212 227 234 231
335 334 331 329 328 281 239 244 262 294 248 276 192 206 211 162 221 250 147 159 146 138 169 173 236 168 169 224 207 232 197 253 218 329 210 220 307 326 311 272 180 254 239 253 229
334 334 332 332 316 304 260 323 333 176 20 262 220 252 172 183 240 202 168 143 111 185 171 228 285 222 214 237 184 256 207 238 254 134 219 110 264 284 299 313 343 266 275 266 254
333 334 329 325 289 277 175 333 348 129 332 170 168 161 143 152 146 217 162 115 174 185 118 233 220 79 239 207 161 229 217 207 209 180 123 334 87 270 315 293 287 297 277 247 246
331 330 325 321 235 254 295 330 135 36 253 210 147 169 139 176 175 158 120 85 155 160 202 218 245 221 215 273 209 274 107 53 48 96 206 219 138 287 241 275 293 279 267 278 322
329 323 314 255 226 161 332 8 67 199 244 180 194 160 176 172 186 172 160 157 170 152 231 282 211 264 238 56 359 50 60 1 323 352 214 281 102 228 281 327 248 285 328 353 82
328 321 304 252 246 267 295 54 206 231 230 246 151 124 181 162 220 179 136 176 207 145 122 180 220 166 59 122 191 16 135 151 204 200 230 315 227 208 10 34 43 71 59 24 71
329 322 288 259 222 202 99 189 217 217 265 303 112 137 216 165 140 132 185 199 196 166 161 164 255 78 100 167 132 217 58 175 106 14 72 258 292 4 36 39 41 46 50 31 37
329 316 276 229 160 150 107 240 249 232 249 332 153 192 163 195 113 119 159 2 156 187 163 197 133 31 111 282 27 124 150 72 16 144 202 285 265 216 69 63 43 22 9 16 29
341 331 339 184 145 68 195 232 276 285 251 175 201 116 148 133 127 203 57 32 28 14 126 107 111 272 87 87 140 21 46 71 109 133 164 168 255 215 137 20 355 22 13 45 57
358 331 74 189 62 223 202 208 265 289 300 196 123 116 137 127 120 122 120 124 271 350 47 16 125 151 211 309 285 90 120 119 138 202 163 160 261 69 48 34 84 48 45 48 59
312 270 313 137 256 269 281 289 288 302 316 347 114 167 81 119 108 108 99 18 73 88 157 165 44 96 24 349 12 102 120 118 103 81 193 211 268 166 80 62 45 54 38 52 54
301 326 313 20 21 359 330 278 285 223 55 12 344 86 85 66 18 112 95 15 18 76 57 84 90 147 189 149 164 157 91 146 121 188 225 229 256 291 345 60 31 22 71 37 19
233 287 332 324 335 335 315 294 309 283 123 116 328 34 138 112 80 87 58 29 33 355 41 81 113 81 6 289 276 206 212 219 212 184 200 202 211 248 172 110 58 341 22 7 349
301 341 344 291 288 274 305 287 255 263 334 64 146 72 79 104 149 161 131 121 148 18 62 359 135 82 316 325 39 276 271 254 232 231 227 229 245 135 117 64 6 340 7 342 321
321 314 267 282 329 16 319 292 273 146 6 55 125 91 71 106 116 145 119 138 157 132 116 93 125 100 259 351 325 287 242 230 134 39 232 221 182 92 38 322 305 261 317 300 304